Weather History for PHNG - January, 2014

Change the Weather History Date:

Monday, January 20, 2014

  Actual Average Record
Temperature  
Mean Temperature 74 °F -  
Max Temperature 80 °F 75 °F 81 °F (2015)
Min Temperature 69 °F 66 °F 66 °F (1997)
Cooling Degree Days 10    
Growing Degree Days 24 (Base 50)    
Moisture  
Dew Point 63 °F    
Average Humidity 66    
Maximum Humidity 79    
Minimum Humidity 54    
Precipitation  
Precipitation 0.00 in - - ()
Sea Level Pressure  
Sea Level Pressure 29.89 in    
Wind  
Wind Speed 2 mph (ESE)    
Max Wind Speed 7 mph    
Max Gust Speed -    
Visibility 9 miles    
Events      
Averages and records for this station are not official NWS values.
T = Trace of Precipitation, MM = Missing Value Source: NWS Daily Summary

Daily Weather History Graph

Daily Weather History Graph

Search for Another Location

Airport or City:

Trip Planner

Search our weather history database for the weather conditions in past years. The results will help you decide how hot, cold, wet, or windy it might be!

Date:

Astronomy

Jan. 20, 2014 Rise Set
Actual Time 7:11 AM HST 6:13 PM HST
Civil Twilight 6:47 AM HST 6:37 PM HST
Nautical Twilight 6:20 AM HST 7:04 PM HST
Astronomical Twilight 5:53 AM HST 7:30 PM HST
Moon 10:18 PM HST (1/20) 9:53 AM HST (1/20)
Length of Visible Light 11h 49m
Length of Day
11h 02m
Waning Gibbous, 81% of the Moon is Illuminated
Jan 20
Waning Gibbous
Jan 23
Last Quarter
Jan 30
New
Feb 6
First Quarter
Feb 14
Full

Hourly Weather History & Observations

Time (HST) Temp. Heat Index Dew Point Humidity Pressure Visibility Wind Dir Wind Speed Gust Speed Precip Events Conditions
12:04 AM 71.6 °F - 62.6 °F 73% 29.95 in 6.2 mi Calm Calm - N/A   Mostly Cloudy
1:57 AM 69.8 °F - 63.0 °F 79% 29.88 in 10.0 mi Calm Calm - N/A   Clear
2:57 AM 69.8 °F - 60.1 °F 71% 29.88 in 10.0 mi Calm Calm - N/A   Clear
3:57 AM 69.8 °F - 59.0 °F 68% 29.88 in 10.0 mi Calm Calm - N/A   Partly Cloudy
4:57 AM 69.8 °F - 61.0 °F 73% 29.89 in 10.0 mi Calm Calm - N/A   Partly Cloudy
5:57 AM 69.8 °F - 62.1 °F 76% 29.91 in 10.0 mi Calm Calm - N/A   Partly Cloudy
6:57 AM 69.8 °F - 62.1 °F 76% 29.92 in 10.0 mi Calm Calm - N/A   Clear
7:57 AM 71.6 °F - 62.1 °F 72% 29.94 in 8.0 mi Calm Calm - N/A   Clear
8:57 AM 73.4 °F - 64.0 °F 72% 29.94 in 10.0 mi Calm Calm - N/A   Clear
11:57 AM 75.2 °F - 64.9 °F 70% 29.92 in 9.0 mi NE 5.8 mph - N/A   Clear
12:55 PM 80.6 °F 82.7 °F 66.2 °F 61% 29.90 in 6.2 mi Variable 5.8 mph - N/A   Mostly Cloudy
12:57 PM 80.6 °F 82.7 °F 66.0 °F 61% 29.88 in 9.0 mi Variable 5.8 mph - N/A   Mostly Cloudy
1:16 PM 80.6 °F 82.3 °F 64.4 °F 58% 29.88 in 6.2 mi Variable 3.5 mph - N/A   Scattered Clouds
1:57 PM 80.6 °F 82.4 °F 64.9 °F 59% 29.85 in 10.0 mi ESE 3.5 mph - N/A   Clear
2:04 PM 78.8 °F - 64.4 °F 61% 29.86 in 6.2 mi East 6.9 mph - N/A   Mostly Cloudy
2:40 PM 78.8 °F - 64.4 °F 61% 29.86 in 6.2 mi Variable 4.6 mph - N/A   Partly Cloudy
2:57 PM 78.8 °F - 64.0 °F 60% 29.84 in 10.0 mi East 5.8 mph - N/A   Partly Cloudy
3:57 PM 78.8 °F - 61.0 °F 54% 29.85 in 10.0 mi East 4.6 mph - N/A   Partly Cloudy
4:30 PM 77.0 °F - 62.6 °F 61% 29.86 in 6.2 mi ESE 4.6 mph - N/A   Mostly Cloudy
4:41 PM 77.0 °F - 62.6 °F 61% 29.87 in 6.2 mi SE 5.8 mph - N/A   Scattered Clouds
4:57 PM 77.0 °F - 63.0 °F 62% 29.86 in 10.0 mi SE 5.8 mph - N/A   Scattered Clouds
5:57 PM 77.0 °F - 63.0 °F 62% 29.87 in 10.0 mi West 5.8 mph - N/A   Scattered Clouds
6:57 PM 75.2 °F - 62.1 °F 64% 29.88 in 10.0 mi West 3.5 mph - N/A   Clear
7:57 PM 73.4 °F - 63.0 °F 70% 29.90 in 10.0 mi Calm Calm - N/A   Clear
8:57 PM 73.4 °F - 62.1 °F 68% 29.91 in 10.0 mi Calm Calm - N/A   Clear
9:57 PM 73.4 °F - 60.1 °F 63% 29.91 in 10.0 mi Calm Calm - N/A   Clear
10:57 PM 72.7 °F - 59.0 °F 62% 29.91 in 7.0 mi Calm Calm - N/A   Clear
11:57 PM 72.5 °F - 60.1 °F 65% 29.90 in 9.0 mi Calm Calm - N/A   Clear